GW0580 Weather Reports


Display with metric or nautical units.
time (UTC)temp
F
wind
direction
speed
MPH
gust
MPH
rain 1hr
in
rain 24hr
in
rain mn
in
humidity
%
barometer
mb
20260510031438 51 221 3.0 7.0 0.00 0.00 0.00 68 999.4
20260510025440 51 221 5.0 12.0 0.00 0.00 0.00 67 998.9
20260510024440 51 218 5.0 8.0 0.00 0.00 0.00 67 998.8
20260510023439 51 221 5.0 11.0 0.00 0.00 0.00 67 998.4
20260510021438 52 208 3.0 6.0 0.00 0.00 0.00 67 998.0
20260510020438 52 212 5.0 11.0 0.00 0.00 0.00 67 997.7
20260510015440 52 234 4.0 9.0 0.00 0.00 0.00 68 997.5
20260510014439 52 227 4.0 10.0 0.00 0.00 0.00 69 997.3
20260510012438 52 214 4.0 7.0 0.00 0.00 0.00 70 996.8
20260510011438 52 202 4.0 10.0 0.00 0.00 0.00 71 996.8
20260510010440 52 234 5.0 12.0 0.00 0.00 0.00 71 996.7
20260510004456 52 218 6.0 12.0 0.00 0.00 0.00 70 996.7
20260510003438 52 227 6.0 10.0 0.00 0.00 0.00 70 996.7
20260510002439 53 236 5.0 8.0 0.00 0.00 0.00 70 996.5
20260510001439 54 199 6.0 8.0 0.00 0.00 0.00 69 996.6
20260510000441 54 216 6.0 14.0 0.00 0.00 0.00 68 996.6
20260509233439 55 219 7.0 18.0 0.00 0.00 0.00 68 996.6
20260509231439 56 232 8.0 15.0 0.00 0.00 0.00 69 996.4
20260509230440 56 234 8.0 12.0 0.00 0.00 0.00 68 995.9
20260509225442 56 227 7.0 12.0 0.00 0.00 0.00 69 995.7
20260509224439 56 227 7.0 13.0 0.00 0.00 0.00 69 995.2
20260509223438 57 206 5.0 12.0 0.00 0.00 0.00 69 994.7
20260509222438 57 163 2.0 6.0 0.00 0.00 0.00 67 994.1
20260509220440 56 184 1.0 4.0 0.00 0.00 0.00 65 993.2
20260509215440 56 167 2.0 5.0 0.00 0.00 0.00 64 993.1
20260509212438 56 216 6.0 11.0 0.00 0.00 0.00 61 992.7
20260509211439 55 253 3.0 6.0 0.00 0.00 0.00 61 992.2
20260509210438 55 34 2.0 4.0 0.00 0.00 0.00 60 991.8
20260509205441 55 30 2.0 3.0 0.00 0.00 0.00 60 991.9
20260509204440 55 43 2.0 3.0 0.00 0.00 0.00 59 991.7
20260509203440 55 49 3.0 4.0 0.00 0.00 0.00 58 991.4
20260509202439 55 30 2.0 4.0 0.00 0.00 0.00 57 991.1
20260509200440 57 36 2.0 4.0 0.00 0.00 0.00 55 991.0
20260509195438 58 270 1.0 2.0 0.00 0.00 0.00 55 990.9
20260509193439 59 135 1.0 4.0 0.00 0.00 0.00 54 990.5
20260509192440 59 197 1.0 3.0 0.00 0.00 0.00 54 990.3
20260509191439 60 114 4.0 8.0 0.00 0.00 0.00 53 990.4
20260509190439 60 148 3.0 6.0 0.00 0.00 0.00 53 990.0
20260509185439 60 150 4.0 6.0 0.00 0.00 0.00 53 990.1
20260509184438 59 150 4.0 10.0 0.00 0.00 0.00 54 989.7
20260509183438 59 159 2.0 5.0 0.00 0.00 0.00 54 989.8
20260509180439 59 221 3.0 8.0 0.00 0.00 0.00 54 989.5
20260509175438 59 199 2.0 4.0 0.00 0.00 0.00 55 989.5
20260509174438 59 133 3.0 6.0 0.00 0.00 0.00 55 989.2
20260509173440 59 135 1.0 3.0 0.00 0.00 0.00 55 989.1
20260509172438 59 210 5.0 9.0 0.00 0.00 0.00 55 989.2
20260509170439 59 232 2.0 8.0 0.00 0.00 0.00 55 989.0
20260509165438 59 154 4.0 7.0 0.00 0.00 0.00 55 989.0
20260509164439 58 229 4.0 8.0 0.00 0.00 0.00 55 989.3
20260509163438 58 186 1.0 2.0 0.00 0.00 0.00 56 989.0
20260509162438 59 171 1.0 4.0 0.00 0.00 0.00 55 988.8
20260509161441 59 128 3.0 5.0 0.00 0.00 0.00 56 989.2
20260509160441 59 112 3.0 5.0 0.00 0.00 0.00 56 989.0
20260509155438 59 193 3.0 10.0 0.00 0.00 0.00 56 988.9
20260509154441 58 182 5.0 11.0 0.00 0.00 0.00 56 989.0
20260509153441 58 165 3.0 5.0 0.00 0.00 0.00 56 989.1
20260509151439 58 139 3.0 6.0 0.00 0.00 0.00 57 989.2
20260509150439 57 152 2.0 5.0 0.00 0.00 0.00 57 989.2
20260509144439 57 111 4.0 11.0 0.00 0.00 0.00 57 989.3
20260509143439 57 66 5.0 9.0 0.00 0.00 0.00 57 989.4
20260509142440 57 66 4.0 6.0 0.00 0.00 0.00 57 989.8
20260509141439 57 111 6.0 11.0 0.00 0.00 0.00 57 989.9
20260509140443 57 88 2.0 4.0 0.00 0.00 0.00 57 989.9
20260509135439 57 156 1.0 2.0 0.00 0.00 0.00 57 990.0
20260509133439 58 103 4.0 10.0 0.00 0.00 0.00 56 990.0
20260509132438 58 75 2.0 6.0 0.00 0.00 0.00 57 990.3
20260509130439 58 197 4.0 17.0 0.00 0.00 0.00 56 990.7
20260509124438 59 141 3.0 9.0 0.00 0.00 0.00 56 990.7
20260509123440 59 167 5.0 10.0 0.00 0.00 0.00 56 991.0
20260509121441 58 139 4.0 6.0 0.00 0.00 0.00 57 991.3
20260509115444 58 163 5.0 11.0 0.00 0.00 0.00 58 991.5
20260509113440 58 36 7.0 12.0 0.00 0.00 0.00 59 991.6
20260509112440 58 135 5.0 11.0 0.00 0.00 0.00 60 991.5
20260509111439 58 96 3.0 13.0 0.00 0.00 0.00 61 991.7
20260509110439 58 154 6.0 8.0 0.00 0.00 0.00 62 991.4
20260509105439 57 56 7.0 16.0 0.00 0.00 0.00 63 991.7
20260509104439 57 86 4.0 18.0 0.00 0.00 0.00 64 991.5
20260509103438 57 101 3.0 10.0 0.00 0.00 0.00 66 991.3
20260509102440 57 193 4.0 9.0 0.00 0.00 0.00 67 991.4
20260509101439 56 122 6.0 13.0 0.00 0.00 0.00 70 991.4
20260509100440 56 84 7.0 16.0 0.00 0.00 0.00 73 991.2
20260509095440 55 64 7.0 10.0 0.00 0.00 0.00 75 991.4
20260509093439 53 101 6.0 15.0 0.00 0.00 0.00 79 991.4
20260509091439 51 246 3.0 7.0 0.00 0.00 0.00 81 991.2
20260509090439 51 315 1.0 3.0 0.00 0.00 0.00 81 991.0
20260509085438 50 240 2.0 3.0 0.00 0.00 0.00 81 991.2
20260509084441 49 56 1.0 3.0 0.00 0.00 0.00 80 990.9
20260509081448 50 66 0.0 2.0 0.00 0.00 0.00 80 991.0
20260509080438 50 32 1.0 2.0 0.00 0.00 0.00 80 991.1
20260509074440 50 45 2.0 4.0 0.00 0.00 0.00 80 991.0
20260509073438 51 28 2.0 4.0 0.00 0.00 0.00 79 990.9
20260509072438 51 38 3.0 6.0 0.00 0.00 0.00 79 990.9
20260509071440 51 21 2.0 3.0 0.00 0.00 0.00 79 990.7
20260509070439 52 45 1.0 2.0 0.00 0.00 0.00 79 990.3
20260509065438 52 45 2.0 4.0 0.00 0.00 0.00 79 990.4
20260509064439 53 45 0.0 2.0 0.00 0.00 0.00 79 990.4
20260509063439 53 144 0.0 2.0 0.00 0.00 0.00 79 990.3
20260509062438 53 182 1.0 3.0 0.00 0.00 0.00 79 990.4
20260509061440 53 58 0.0 2.0 0.00 0.00 0.00 78 990.4
20260509060439 54 172 1.0 4.0 0.00 0.00 0.00 78 990.4
20260509055439 54 52 0.0 1.0 0.00 0.00 0.00 79 990.4
20260509054439 54 159 1.0 4.0 0.00 0.00 0.00 78 990.8
20260509052441 55 49 4.0 8.0 0.00 0.00 0.00 78 990.5
20260509050438 56 49 5.0 11.0 0.00 0.00 0.00 77 990.5
20260509045439 56 41 3.0 6.0 0.00 0.00 0.00 77 990.6
20260509044440 56 45 3.0 4.0 0.00 0.00 0.00 77 990.6
20260509043438 56 71 2.0 6.0 0.00 0.00 0.00 76 990.4
20260509042438 57 58 3.0 8.0 0.00 0.00 0.00 76 990.8
20260509041439 57 146 2.0 4.0 0.00 0.00 0.00 76 990.8
20260509040438 58 26 1.0 2.0 0.00 0.00 0.00 76 990.6
20260509033441 59 82 1.0 5.0 0.00 0.02 0.00 76 990.8
20260509032441 59 142 1.0 2.0 0.00 0.02 0.00 75 990.7